Location: Unspecified
(0.0000°N, 0.0000°E)
Time: 18:47:07
(UTC+00:00)

Vanguard 1 - Pass Details

Date: 23 November 2019
Orbit: 652 x 3831 km, 34.2° (Epoch: 05 December)

Event Time Altitude Azimuth Distance (km) Brightness Sun altitude
Rises 20:57:57 0° 244° (WSW) 4,263 14.1 -44.0°
Reaches altitude 10° 21:02:22 10° 220° (SW) 3,825 13.6 -45.0°
Maximum altitude 21:07:40 15° 189° (S) 4,064 13.4 -46.1°
Drops below altitude 10° 21:14:34 10° 160° (SSE) 5,204 13.8 -47.6°
Sets 21:23:05 0° 139° (SE) 6,993 14.4 -49.4°
